Flag for Argentina Weather past 2 weeks in Bahía Blanca, Buenos Aires, Argentina

Now
48 °F

Passing clouds.


Feels Like: 45 °F
Forecast: 47 / 65 °F
Wind: 7 mph from Northwest

Location: Mar Del Plata Aerodrome

Current Time: May 30, 2015 at 5:32:20 AM

Latest Report: May 30, 2015 at 4:00 AM


Visibility: 4 mi

Pressure: 29.95 "Hg

Humidity: 87%

Dew point: 45 °F

Location of Bahía BlancaLocation

Historic Weather in Bahía Blanca — Graph

°F

Bahía Blanca temperature yesterday

Maximum temperature yesterday: 63 °F (at 3:00 PM)
Minimum temperature yesterday: 37 °F (at 6:00 AM)
Average temperature yesterday: 49 °F

Past Weeks' High & Low Weather Summary

 TemperatureHumidityPressure
High79 °F (May 20, 3:00 PM)100% (May 15, 5:00 AM)30.30 "Hg (May 15, 5:00 AM)
Low34 °F (May 25, 6:00 AM)20% (May 25, 3:00 PM)29.77 "Hg (May 23, 2:00 PM)
Average57 °F81%30.04 "Hg
* Reported May 15 4:00 AM — May 30 4:00 AM, Bahía Blanca, Weather by CustomWeather, © 2015

Note: Actual official high and low records may vary slightly from our data, if they occured in-between our weather recording intervals... More about our weather records

Advertising

Bahía Blanca weather history for previous 24 hours

 ConditionsComfort  
Time TempWeatherWind HumidityBarometerVisibility
4:00 AM
Sat, May 30
48 °FPassing clouds.7 mph87%29.95 "Hg4 mi
3:00 AM48 °FClear.6 mph87%29.95 "Hg10 mi
2:00 AM46 °FClear.8 mph93%29.95 "Hg10 mi
1:00 AM46 °FClear.8 mph93%29.98 "Hg10 mi
12:00 AM48 °FClear.9 mph87%29.98 "Hg10 mi
11:00 PM
Fri, May 29
48 °FClear.No wind87%30.01 "Hg5 mi
10:00 PM48 °FClear.5 mph87%29.98 "Hg5 mi
9:00 PM50 °FClear.8 mph88%29.98 "Hg5 mi
8:00 PM52 °FClear.5 mph82%29.98 "Hg5 mi
7:00 PM54 °FClear.5 mph77%29.98 "Hg10 mi
6:05 PM54 °FClear.6 mph77%29.98 "Hg10 mi
5:00 PM59 °FClear.6 mph63%29.98 "Hg10 mi
4:00 PM61 °FSunny.9 mph59%29.98 "Hg10 mi
3:00 PM63 °FSunny.13 mph56%29.98 "Hg10 mi
2:00 PM61 °FSunny.14 mph59%30.01 "Hg10 mi
1:00 PM59 °FSunny.15 mph68%30.04 "Hg10 mi
12:00 PM55 °FPartly sunny.12 mph72%30.07 "HgN/A
11:00 AM52 °FPartly sunny.9 mph82%30.07 "Hg6 mi
10:00 AM46 °FPartly sunny.6 mph82%30.07 "Hg4 mi
9:00 AM43 °FFog.No wind87%30.07 "Hg1 mi
8:00 AM39 °FFog.3 mph93%30.09 "Hg1 mi
7:00 AM37 °FFog.3 mph93%30.07 "Hg1 mi
6:00 AM37 °FFog.No wind100%30.07 "Hg1 mi
5:00 AM39 °FFog.No wind93%30.07 "Hg0 mi
Weather by CustomWeather, © 2015

See weather overviewHow to use our weather pages